Probability
0 0 0 0 0 0 0 0 0 0 0 0 2 6 9 10 12 14 14 14 14 15 16 19 25 27 24 22 22 21 20 19 16 14 13 11 7 5 5 5 5 5 4 4
0 0 0 0 0 0 0 0 0 0 0 0 2 7 11 11 13 15 15 15 17 18 19 21 25 26 23 23 24 24 22 20 17 16 15 12 8 5 5 7 7 7 6 5
0 0 0 0 0 0 0 0 0 1 1 1 4 9 12 13 13 16 18 19 21 22 21 22 24 25 24 25 26 26 25 22 19 19 18 14 10 7 6 8 10 10 9 9
0 0 0 0 0 0 0 0 1 2 4 5 7 10 13 14 15 17 19 21 22 22 20 19 22 25 27 26 25 25 25 22 20 20 19 17 13 10 9 9 11 12 11 10
0 0 0 0 0 0 0 0 1 4 8 11 13 13 13 14 15 16 18 20 21 22 21 19 21 24 27 27 25 23 21 19 18 19 19 18 15 12 10 10 10 11 10 9
0 0 0 0 0 0 0 0 1 5 12 16 16 13 11 13 16 17 20 22 24 25 24 22 19 20 23 25 25 22 17 15 15 16 17 17 14 12 10 9 9 8 8 7
0 0 0 1 1 1 0 0 1 6 12 17 15 11 12 17 21 24 27 30 32 30 27 23 17 15 19 23 23 20 16 14 15 15 15 14 13 11 9 8 7 7 6 6
0 0 0 1 2 1 0 0 1 4 11 15 14 14 17 23 28 32 36 39 39 35 29 22 17 15 18 21 21 19 17 16 15 15 14 13 12 10 7 5 5 6 6 6
1 2 1 1 2 2 2 2 2 4 9 13 16 18 22 28 33 36 38 41 41 35 28 23 19 19 20 20 20 19 17 15 14 14 14 13 11 8 4 3 3 4 4 4
3 4 4 3 2 4 6 7 7 7 9 13 17 20 23 29 33 34 35 38 39 34 27 22 19 19 19 17 16 16 14 14 13 13 13 12 9 6 3 2 3 3 3 2
4 4 5 6 5 7 11 13 12 12 14 17 20 20 23 27 29 30 31 34 35 31 24 18 16 15 15 13 13 14 14 14 14 14 13 10 7 4 3 2 3 3 2 2
2 2 3 5 6 9 14 16 16 16 19 22 23 22 23 26 27 28 29 30 29 26 20 15 13 12 11 11 12 14 15 15 15 15 13 10 6 3 2 1 2 1 1 1
1 1 1 3 7 11 15 17 18 19 20 21 22 21 23 25 26 26 27 27 25 24 19 14 12 12 11 11 12 14 15 14 14 14 13 10 7 4 3 2 1 0 0 0
1 1 1 4 9 13 16 19 20 19 18 18 17 17 20 22 22 23 24 25 25 25 21 16 14 13 12 11 12 13 13 12 12 13 13 10 7 5 5 4 2 1 0 0
3 2 2 4 9 14 17 19 20 19 16 14 13 14 16 18 18 20 23 25 26 25 22 19 17 14 12 11 12 13 13 11 10 11 11 8 6 5 5 4 3 2 1 0
5 4 3 4 7 11 14 17 19 17 13 11 11 12 14 14 15 19 23 25 26 24 22 20 18 15 11 11 14 14 13 10 8 8 7 5 4 5 4 3 3 3 2 1
4 4 4 5 6 7 10 14 16 14 11 10 11 13 14 14 15 17 19 21 21 20 18 17 16 14 12 13 15 15 12 8 6 5 5 4 3 4 3 3 3 3 3 3
2 2 3 5 5 4 6 9 11 11 11 12 13 15 15 14 14 15 15 15 17 16 13 11 12 13 12 13 14 14 11 8 5 4 4 3 3 3 3 3 3 3 3 3
2 2 3 4 3 3 3 5 7 8 10 11 13 16 16 14 14 14 13 13 14 15 12 8 8 9 9 11 13 12 9 6 4 4 3 3 3 3 3 3 3 3 3 3
4 5 5 3 2 3 3 4 5 6 8 11 13 15 16 14 13 13 12 11 12 13 12 8 7 7 7 8 9 9 6 4 3 3 3 3 3 3 3 3 3 3 3 3
4 6 6 4 3 3 3 3 4 5 7 11 13 15 15 14 13 12 11 10 9 10 10 8 7 7 6 6 6 6 4 3 3 3 4 4 3 3 3 3 3 3 3 3
4 5 6 4 3 3 3 3 3 4 6 9 12 13 13 13 12 10 9 8 6 6 7 7 6 7 6 5 5 4 3 3 3 4 5 5 4 4 3 3 3 3 3 3
3 3 4 4 3 3 3 3 3 4 5 7 8 9 10 10 9 7 5 4 3 4 5 6 5 5 5 5 4 4 3 3 3 4 6 6 6 5 4 4 4 3 3 3
1 1 1 2 2 2 2 2 2 3 3 4 5 6 6 6 5 3 2 1 1 2 4 4 3 3 3 4 4 3 3 3 4 5 6 6 6 6 6 6 5 4 4 4
0 0 0 0 1 1 1 1 1 1 1 2 3 4 3 2 1 0 0 0 0 1 2 2 3 3 3 3 3 3 3 3 3 4 4 5 6 6 6 6 6 6 6 6
0 0 0 0 0 0 0 0 0 0 1 2 3 3 1 1 0 0 0 0 0 1 1 1 2 3 3 3 3 3 3 3 3 3 3 4 4 4 5 6 6 6 6 6
0 0 0 0 0 0 0 0 0 0 1 2 3 2 1 0 0 0 0 0 1 1 1 0 1 3 3 3 3 3 3 3 3 3 3 3 3 4 5 6 6 6 6 6
Wind_Speed
4 4 4 4 6 7 6 9 9 8 8 9 7 6 4 4 4 5 5 5 6 6 5 6 6 6 6 6 5 6 6 5 4 4 4 3 3 4 4 4 3 3 3 3
1 1 3 3 5 8 6 6 5 4 8 7 3 3 4 5 6 6 6 6 6 6 6 7 7 7 7 6 6 6 7 6 5 4 4 4 4 4 4 3 3 3 3 3
3 1 2 3 6 7 5 5 8 8 9 3 3 7 9 9 8 8 7 6 7 7 7 7 7 7 7 7 7 7 6 6 5 5 5 4 4 4 3 3 3 3 3 3
4 3 5 9 4 5 6 5 6 5 5 7 7 6 5 5 7 7 6 6 6 5 5 5 5 6 6 7 7 7 6 5 5 5 5 4 4 4 3 2 3 2 2 2
5 4 4 5 2 5 5 4 5 5 4 3 2 3 1 4 5 6 6 5 5 5 5 5 6 7 8 7 7 7 6 6 5 6 6 5 5 4 3 3 3 2 2 2
5 5 7 8 3 2 4 3 4 6 6 6 7 3 6 5 5 4 4 5 5 5 5 6 6 7 9 8 8 7 7 6 6 6 6 6 5 4 3 3 3 3 3 2
5 4 7 6 4 2 5 8 4 6 7 9 8 8 5 5 4 5 5 5 6 6 5 5 7 7 7 8 8 7 6 6 6 5 6 5 5 4 4 4 4 3 3 2
5 4 7 3 2 6 7 3 3 5 7 7 5 3 3 5 5 5 5 5 6 5 4 5 6 8 7 7 7 6 7 6 6 5 5 5 6 5 4 5 4 3 2 2
8 7 5 2 4 4 3 3 3 4 4 6 4 3 3 4 5 5 5 5 4 4 4 4 5 7 8 6 6 7 7 7 6 6 5 5 6 6 4 4 3 3 2 2
1 4 3 3 2 2 2 3 3 3 4 5 5 5 4 4 4 4 4 5 5 5 4 3 4 4 5 6 7 8 8 7 6 6 5 4 4 4 4 4 4 3 3 2
1 3 2 3 2 2 1 0 1 2 2 4 6 4 4 4 4 4 3 4 5 6 6 5 4 4 5 7 8 8 8 7 6 6 6 5 4 3 4 4 4 5 4 4
5 5 4 4 3 1 0 1 2 3 3 2 4 4 4 3 3 4 4 4 5 5 5 4 5 5 5 7 8 9 8 7 6 5 5 5 4 2 2 2 3 4 4 4
4 3 3 3 2 1 0 0 2 3 3 2 2 3 3 3 3 3 3 4 5 5 5 5 5 5 6 7 8 9 8 7 6 6 6 5 5 5 3 1 2 2 3 4
3 2 1 1 1 1 1 2 3 3 3 3 2 3 2 2 2 3 4 3 4 5 5 5 5 5 6 7 7 8 7 8 7 6 6 5 5 5 4 4 3 1 1 3
2 2 3 1 1 2 3 3 4 3 3 2 2 3 3 3 3 3 3 3 4 5 5 5 5 5 5 7 8 8 7 6 5 5 5 5 5 4 4 4 4 3 2 1
1 1 2 2 2 2 3 3 2 0 1 1 1 2 2 2 2 2 2 4 5 5 5 5 5 5 5 6 7 6 5 8 7 5 5 5 5 5 4 4 4 4 4 3
1 0 0 1 1 1 1 0 1 1 1 1 1 1 2 2 2 2 2 2 3 3 4 5 5 5 6 6 7 5 5 6 8 5 5 5 5 5 5 5 5 5 4 4
3 3 3 4 3 2 1 1 1 2 2 3 2 2 3 4 4 4 3 2 2 1 2 3 4 5 5 6 6 5 5 5 5 5 4 4 4 4 4 5 5 5 3 3
1 2 2 1 1 2 2 2 2 2 2 2 2 3 3 3 3 4 4 4 4 4 4 3 5 5 6 6 6 4 5 5 5 4 4 5 5 4 4 5 4 4 4 4
1 0 1 1 1 1 2 2 2 2 2 2 2 2 2 2 2 3 4 4 4 3 4 5 5 5 5 6 6 4 5 5 5 4 4 4 4 4 4 4 4 4 4 4
0 1 1 1 1 0 1 2 2 2 2 2 3 3 2 2 2 3 4 3 2 3 4 5 5 4 4 5 6 4 4 4 4 4 4 4 4 4 4 4 4 4 4 4
1 1 1 1 1 1 1 1 2 2 1 1 2 2 2 1 1 2 2 2 1 4 4 4 4 5 6 6 4 4 4 4 4 4 4 4 4 4 4 4 4 4 3 3
2 1 1 1 0 1 1 0 1 1 2 2 2 2 2 2 1 2 1 1 1 3 3 3 4 7 8 5 4 4 5 4 4 4 4 4 4 4 4 4 3 3 3 3
2 2 1 1 1 2 2 2 1 1 1 1 1 2 2 2 1 0 1 2 3 4 3 3 6 7 7 4 4 4 4 4 4 4 4 3 3 3 4 4 3 3 3 3
1 1 1 1 1 1 1 1 1 1 1 1 0 0 1 2 2 1 2 2 3 4 3 4 6 6 5 4 4 4 4 3 4 4 3 3 3 3 3 3 3 3 3 3
2 1 1 1 1 1 1 0 0 0 1 1 1 1 1 1 2 2 2 3 4 4 3 3 3 4 3 4 4 4 4 4 4 3 3 3 3 3 3 3 3 3 3 3
2 2 1 2 1 1 1 0 0 1 0 1 0 0 1 1 2 3 3 3 3 3 3 3 3 3 3 3 3 3 3 3 3 3 3 3 3 3 3 3 2 2 2 2
Wind_Direction
208 208 174 172 175 172 166 170 173 217 224 244 232 216 203 183 163 155 161 164 165 163 166 164 162 164 164 160 154 150 143 147 152 142 127 118 112 108 104 102 100 95 86 70
200 225 180 180 190 184 184 174 190 201 243 245 220 166 176 184 176 177 179 180 178 171 167 171 172 170 166 161 155 149 148 150 143 134 129 125 122 115 108 102 97 89 80 73
201 256 91 237 207 185 185 188 171 195 228 201 181 196 196 193 188 193 192 185 181 183 182 179 174 168 169 162 150 147 148 146 144 142 140 141 135 121 116 112 104 94 85 81
142 126 207 240 231 186 178 204 196 207 219 198 204 207 200 189 185 194 191 184 182 178 177 169 160 155 150 145 147 148 147 149 152 151 148 142 135 131 122 111 104 96 90 92
129 164 249 287 224 172 162 234 213 204 210 189 135 81 288 210 192 196 187 174 173 172 166 158 156 153 143 144 148 149 156 162 161 157 155 153 153 149 140 129 111 97 92 93
127 149 210 235 254 212 125 254 235 191 181 157 127 151 241 215 184 169 158 157 156 149 143 148 154 150 147 152 156 167 172 171 161 156 156 160 158 148 139 131 123 117 95 84
144 177 245 248 271 130 160 230 230 189 183 168 179 203 211 169 162 153 155 156 150 146 148 157 151 151 158 160 172 175 163 153 151 155 156 153 142 137 136 127 120 113 103 79
145 163 241 262 133 167 213 247 216 195 189 186 199 195 150 147 149 146 141 146 151 148 154 152 151 154 167 179 172 157 150 149 151 152 153 146 140 137 135 134 130 125 116 89
179 201 231 242 218 241 215 224 225 195 187 176 181 183 160 152 152 149 146 147 143 146 148 147 155 164 174 179 154 147 148 153 153 148 145 147 149 147 140 141 144 146 145 144
192 249 256 262 265 279 241 228 231 190 171 169 173 167 155 151 154 149 153 152 140 140 153 164 166 170 171 154 149 150 155 157 155 153 149 143 144 150 154 160 162 163 169 176
208 265 306 308 303 311 329 46 105 103 135 163 154 157 163 162 162 158 154 159 158 162 175 184 173 170 161 156 152 154 158 160 159 160 157 151 150 161 172 181 185 178 185 183
210 219 193 243 282 303 73 124 140 115 94 126 153 160 163 165 167 160 159 160 161 165 168 173 167 164 163 162 160 159 162 166 167 165 162 160 155 137 98 157 178 184 181 178
224 232 218 241 278 302 259 176 124 124 138 135 131 143 155 163 168 156 155 160 167 169 165 167 170 173 171 165 164 167 169 170 170 170 170 171 172 172 166 112 113 155 180 190
240 195 217 244 255 348 37 62 78 81 85 108 113 117 126 129 146 152 166 173 161 151 157 164 172 185 178 166 165 168 168 172 173 176 176 179 182 181 178 178 184 201 204 201
291 205 196 212 50 44 54 73 79 67 63 71 97 118 137 147 165 175 168 155 145 147 162 167 174 187 173 166 167 169 169 171 173 173 176 179 179 180 182 186 190 189 174 170
326 55 91 85 76 62 61 68 81 64 62 77 107 137 154 149 153 153 148 154 156 167 176 176 184 183 170 169 167 168 174 174 171 174 177 179 181 185 189 191 194 196 200 190
137 97 126 141 116 68 29 309 222 226 212 188 190 165 134 121 128 156 172 171 170 179 179 177 180 170 169 172 171 172 171 174 176 177 181 184 188 193 193 194 199 202 206 192
197 202 206 198 190 181 209 269 268 241 228 216 183 163 164 166 182 201 194 152 126 190 219 191 171 167 174 176 173 169 169 174 181 182 180 185 190 190 190 195 200 200 194 183
193 208 208 193 186 180 193 220 251 254 243 199 172 183 189 193 196 196 176 167 177 204 213 185 173 171 182 183 172 168 171 172 171 173 178 180 183 187 189 193 195 193 184 180
11 81 130 136 142 183 206 223 225 248 244 193 164 164 180 208 200 183 172 189 211 207 179 166 169 175 181 178 168 167 170 171 171 172 174 177 181 184 188 190 190 187 184 185
37 48 74 81 47 288 212 205 200 225 232 171 164 183 199 217 196 167 164 201 233 179 163 167 173 179 175 166 162 162 164 167 171 173 175 177 177 179 182 185 185 187 189 189
62 64 57 54 50 342 305 211 184 186 176 155 162 171 171 188 172 153 172 205 205 162 164 171 175 171 165 160 163 162 163 170 175 174 175 176 178 181 185 186 187 188 189 189
31 39 31 15 10 335 344 353 179 166 160 167 174 184 186 177 164 165 200 229 167 166 165 168 164 158 154 153 158 159 163 170 175 176 176 176 178 180 178 177 178 177 175 176
23 27 22 360 24 55 28 360 10 67 144 192 199 188 163 145 125 188 169 148 147 152 148 148 152 150 145 145 149 154 161 166 167 165 166 166 169 172 170 170 173 179 177 177
15 30 47 37 35 19 326 330 11 50 91 93 54 67 140 153 165 167 144 136 132 132 122 128 137 140 140 141 144 149 153 155 154 154 158 161 164 165 167 169 174 176 177 183
1 356 343 337 331 311 302 325 3 5 112 99 34 32 82 114 129 128 120 120 121 124 122 120 126 131 136 140 142 144 142 143 146 151 157 159 159 158 162 169 169 170 170 174
12 9 8 -0 348 322 297 294 280 294 217 168 155 27 101 113 116 119 120 120 119 117 113 108 110 118 124 126 126 127 127 131 137 143 145 145 148 151 153 154 158 156 153 152